Breckenridge, TX

10:54 PM CDT on April 25, 2018 (GMT -0500)
Stephens County

Weather History for KBKD - June, 2013

Change the Weather History Date:

Friday, June 14, 2013

  Actual Average (KMWL) Record (KMWL)
Temperature  
Mean Temperature 82 °F -  
Max Temperature 93 °F 87 °F 102 °F (2011)
Min Temperature 72 °F 67 °F 59 °F (2003)
Cooling Degree Days 18    
Growing Degree Days 32 (Base 50)    
Moisture  
Dew Point 61 °F    
Average Humidity 50    
Maximum Humidity 73    
Minimum Humidity 30    
Precipitation  
Precipitation 0.00 in - - ()
Sea Level Pressure  
Sea Level Pressure 29.98 in    
Wind  
Wind Speed 5 mph (South)    
Max Wind Speed 13 mph    
Max Gust Speed 20 mph    
Visibility 10 miles    
Events      
Averages and records for this station are not official NWS values.
T = Trace of Precipitation, MM = Missing Value Source: NWS Daily Summary

Daily Weather History Graph

Daily Weather History Graph

Search for Another Location

Airport or City:

Astronomy

Jun. 14, 2013 Rise Set
Actual Time 6:27 AM CDT 8:44 PM CDT
Civil Twilight 5:58 AM CDT 9:13 PM CDT
Nautical Twilight 5:23 AM CDT 9:48 PM CDT
Astronomical Twilight 4:45 AM CDT 10:26 PM CDT
Moon 11:48 AM CDT (6/14) 12:05 AM CDT (6/14)
Length of Visible Light 15h 14m
Length of Day
14h 17m
Waxing Crescent, 30% of the Moon is Illuminated
Jun 14
Waxing Crescent
Jun 16
First Quarter
Jun 23
Full
Jun 29
Last Quarter
Jul 8
New

Hourly Weather History & Observations

Time (CDT) Temp. Heat Index Dew Point Humidity Pressure Visibility Wind Dir Wind Speed Gust Speed Precip Events Conditions
12:15 AM 81.7 °F 82.2 °F 60.4 °F 48% 29.97 in 10.0 mi SSW 4.6 mph - N/A   Clear
12:35 AM 81.7 °F 82.0 °F 59.9 °F 47% 29.98 in 10.0 mi South 4.6 mph - N/A   Clear
12:55 AM 81.1 °F 81.8 °F 60.1 °F 49% 29.98 in 10.0 mi South 3.5 mph - N/A   Clear
1:15 AM 79.7 °F - 60.6 °F 52% 29.98 in 10.0 mi SSE 3.5 mph - N/A   Clear
1:35 AM 78.8 °F - 61.2 °F 55% 29.98 in 10.0 mi SSE 4.6 mph - N/A   Clear
1:55 AM 77.9 °F - 61.3 °F 57% 29.98 in 10.0 mi SSE 6.9 mph - N/A   Clear
2:15 AM 76.8 °F - 61.7 °F 59% 29.97 in 10.0 mi SSE 6.9 mph - N/A   Clear
2:35 AM 76.8 °F - 61.0 °F 58% 29.97 in 10.0 mi South 6.9 mph - N/A   Clear
2:55 AM 76.6 °F - 61.7 °F 60% 29.97 in 10.0 mi SSE 6.9 mph - N/A   Clear
3:15 AM 76.1 °F - 62.1 °F 62% 29.97 in 10.0 mi South 5.8 mph - N/A   Clear
3:35 AM 75.4 °F - 61.9 °F 63% 29.97 in 10.0 mi South 6.9 mph - N/A   Clear
3:55 AM 75.4 °F - 61.9 °F 63% 29.97 in 10.0 mi South 5.8 mph - N/A   Clear
4:15 AM 74.5 °F - 61.9 °F 65% 29.97 in 10.0 mi SSE 3.5 mph - N/A   Clear
4:35 AM 73.8 °F - 62.2 °F 67% 29.98 in 10.0 mi SSE 3.5 mph - N/A   Clear
4:55 AM 72.9 °F - 62.6 °F 70% 29.98 in 10.0 mi SSE 4.6 mph - N/A   Clear
5:15 AM 73.0 °F - 62.8 °F 70% 29.98 in 10.0 mi South 3.5 mph - N/A   Clear
5:35 AM 72.9 °F - 63.1 °F 71% 29.98 in 10.0 mi SSW 3.5 mph - N/A   Clear
5:55 AM 73.9 °F - 63.5 °F 70% 29.98 in 10.0 mi Calm Calm - N/A   Clear
6:15 AM 73.0 °F - 63.5 °F 72% 29.99 in 10.0 mi Calm Calm - N/A   Clear
6:35 AM 72.7 °F - 63.7 °F 73% 29.99 in 10.0 mi SSE 3.5 mph - N/A   Clear
6:55 AM 73.0 °F - 64.0 °F 73% 30.00 in 10.0 mi South 4.6 mph - N/A   Clear
7:15 AM 73.9 °F - 64.4 °F 72% 30.01 in 10.0 mi South 4.6 mph - N/A   Clear
7:35 AM 74.3 °F - 64.6 °F 72% 30.01 in 10.0 mi Calm Calm - N/A   Clear
7:55 AM 74.3 °F - 65.1 °F 73% 30.01 in 10.0 mi South 3.5 mph - N/A   Clear
8:15 AM 75.4 °F - 65.3 °F 71% 30.01 in 10.0 mi South 3.5 mph - N/A   Clear
8:35 AM 76.5 °F - 66.0 °F 70% 30.02 in 10.0 mi Calm Calm - N/A   Clear
8:55 AM 78.6 °F - 66.2 °F 66% 30.02 in 10.0 mi SSW 5.8 mph - N/A   Clear
9:15 AM 79.0 °F - 65.7 °F 64% 30.03 in 10.0 mi SSW 4.6 mph - N/A   Clear
9:35 AM 79.9 °F - 65.7 °F 62% 30.03 in 10.0 mi SSW 6.9 mph - N/A   Clear
9:55 AM 81.1 °F 83.1 °F 65.7 °F 59% 30.03 in 10.0 mi SW 5.8 mph - N/A   Clear
10:15 AM 82.9 °F 84.2 °F 63.5 °F 52% 30.03 in 10.0 mi SW 5.8 mph - N/A   Clear
10:35 AM 83.1 °F 84.2 °F 63.1 °F 51% 30.03 in 10.0 mi WSW 9.2 mph - N/A   Clear
10:55 AM 83.5 °F 84.5 °F 63.1 °F 50% 30.02 in 10.0 mi WSW 8.1 mph - N/A   Clear
11:15 AM 84.7 °F 84.4 °F 59.5 °F 42% 30.03 in 10.0 mi SW 6.9 mph - N/A   Clear
11:35 AM 85.6 °F 85.2 °F 59.2 °F 41% 30.03 in 10.0 mi West 5.8 mph - N/A   Clear
11:55 AM 87.3 °F 86.7 °F 59.2 °F 39% 30.02 in 10.0 mi SW 4.6 mph - N/A   Clear
12:15 PM 88.9 °F 88.5 °F 59.9 °F 38% 30.02 in 10.0 mi SSW 6.9 mph - N/A   Clear
12:35 PM 88.5 °F 87.8 °F 59.0 °F 37% 30.01 in 10.0 mi South 4.6 mph - N/A   Clear
12:55 PM 89.4 °F 88.7 °F 59.2 °F 36% 30.00 in 10.0 mi SW 6.9 mph - N/A   Clear
1:15 PM 89.6 °F 88.9 °F 59.2 °F 36% 29.99 in 10.0 mi SSW 6.9 mph - N/A   Clear
1:35 PM 88.7 °F 87.8 °F 58.6 °F 36% 30.00 in 10.0 mi SSE 9.2 mph - N/A   Clear
1:55 PM 89.6 °F 88.9 °F 59.4 °F 36% 29.99 in 10.0 mi South 6.9 mph - N/A   Clear
2:15 PM 90.5 °F 90.1 °F 59.9 °F 36% 29.99 in 10.0 mi South 11.5 mph - N/A   Clear
2:35 PM 90.1 °F 89.1 °F 58.6 °F 34% 29.99 in 10.0 mi SSE 9.2 mph - N/A   Clear
2:55 PM 91.2 °F 90.5 °F 59.2 °F 34% 29.98 in 10.0 mi SSW 8.1 mph - N/A   Clear
3:15 PM 91.6 °F 90.4 °F 58.1 °F 32% 29.98 in 10.0 mi SSE 9.2 mph - N/A   Scattered Clouds
3:35 PM 92.1 °F 90.8 °F 57.0 °F 31% 29.98 in 10.0 mi SE 10.4 mph - N/A   Clear
3:55 PM 91.8 °F 90.3 °F 57.2 °F 31% 29.97 in 10.0 mi SE 11.5 mph - N/A   Clear
4:15 PM 92.8 °F 91.7 °F 57.7 °F 31% 29.96 in 10.0 mi South 8.1 mph - N/A   Scattered Clouds
4:35 PM 92.3 °F 90.7 °F 56.7 °F 30% 29.96 in 10.0 mi SE 8.1 mph 19.6 mph N/A   Scattered Clouds
4:55 PM 93.4 °F 92.2 °F 57.4 °F 30% 29.95 in 10.0 mi South 12.7 mph - N/A   Clear
5:15 PM 92.5 °F 91.3 °F 57.4 °F 31% 29.94 in 10.0 mi SSE 10.4 mph 19.6 mph N/A   Clear
5:35 PM 91.9 °F 90.6 °F 57.6 °F 31% 29.94 in 10.0 mi SSE 9.2 mph - N/A   Clear
5:55 PM 92.1 °F 90.8 °F 57.4 °F 31% 29.93 in 10.0 mi SE 6.9 mph - N/A   Clear
6:15 PM 91.8 °F 90.6 °F 57.6 °F 32% 29.92 in 10.0 mi SE 12.7 mph 18.4 mph N/A   Clear
6:35 PM 91.4 °F 89.9 °F 57.2 °F 31% 29.92 in 10.0 mi SE 11.5 mph 17.3 mph N/A   Clear
6:55 PM 90.5 °F 89.3 °F 58.1 °F 33% 29.92 in 10.0 mi SSE 8.1 mph - N/A   Clear
7:15 PM 89.6 °F 88.4 °F 57.6 °F 34% 29.93 in 10.0 mi South 9.2 mph - N/A   Clear
7:35 PM 89.2 °F 88.7 °F 59.9 °F 37% 29.93 in 10.0 mi South 9.2 mph - N/A   Clear
7:55 PM 88.9 °F 88.3 °F 59.4 °F 37% 29.93 in 10.0 mi SSE 9.2 mph - N/A   Clear
8:15 PM 88.3 °F 88.1 °F 60.4 °F 39% 29.93 in 10.0 mi SSE 5.8 mph - N/A   Clear
8:35 PM 86.9 °F 86.7 °F 60.8 °F 41% 29.94 in 10.0 mi South 4.6 mph - N/A   Clear
8:55 PM 86.9 °F 87.0 °F 61.2 °F 42% 29.94 in 10.0 mi SSE 4.6 mph - N/A   Clear
9:15 PM 86.0 °F 86.3 °F 61.9 °F 44% 29.94 in 10.0 mi South 3.5 mph - N/A   Clear
9:35 PM 85.1 °F 85.9 °F 62.6 °F 47% 29.95 in 10.0 mi South 4.6 mph - N/A   Clear
9:55 PM 83.8 °F 84.7 °F 62.8 °F 49% 29.96 in 10.0 mi South 4.6 mph - N/A   Clear
10:15 PM 83.5 °F 84.7 °F 63.5 °F 51% 29.96 in 10.0 mi SSW 3.5 mph - N/A   Clear
10:35 PM 82.6 °F 83.9 °F 64.0 °F 53% 29.97 in 10.0 mi SW 4.6 mph - N/A   Clear
10:55 PM 82.0 °F 83.6 °F 64.6 °F 55% 29.97 in 10.0 mi SW 3.5 mph - N/A   Clear
11:15 PM 80.8 °F 82.6 °F 65.5 °F 59% 29.98 in 10.0 mi Calm Calm - N/A   Scattered Clouds
11:35 PM 80.1 °F 82.1 °F 66.2 °F 62% 29.98 in 10.0 mi West 4.6 mph - N/A   Clear
11:55 PM 80.1 °F 82.1 °F 66.2 °F 62% 29.98 in 10.0 mi Calm Calm - N/A   Clear